Location: Terschelling
(53.4100°N, 5.3500°E)
Time: 10:50:05
(UTC+01:00)

XW-2C - Visible Passes

Search period start: 08 December 2023 00:00
Search period end: 18 December 2023 00:00
Orbit: 463 x 474 km, 97.5° (Epoch: 08 December)

Date Brightness Start Highest point End Pass type
(mag) Time Alt. Az. Time Alt. Az. Time Alt. Az.
08 Dec ? 07:10:51 10° NNE 07:14:21 53° E 07:17:48 10° S visible
08 Dec ? 17:50:21 10° SSE 17:53:47 54° ENE 17:57:17 10° N visible
08 Dec ? 19:25:05 10° SW 19:27:15 15° W 19:29:26 10° NW visible
09 Dec ? 06:42:00 10° NE 06:45:03 26° E 06:48:03 10° SSE visible
09 Dec ? 17:21:44 10° SE 17:24:46 28° ENE 17:27:50 10° N visible
09 Dec ? 18:54:43 10° SSW 18:57:51 29° W 19:01:01 10° NNW visible
10 Dec ? 06:13:45 10° ENE 06:15:36 14° E 06:17:27 10° ESE visible
10 Dec ? 07:45:36 10° N 07:49:08 63° WNW 07:52:37 10° SSW visible
10 Dec ? 18:25:03 10° S 18:28:33 61° WSW 18:32:05 10° NNW visible
11 Dec ? 07:16:24 10° NNE 07:19:56 61° ESE 07:23:25 10° S visible
11 Dec ? 17:55:51 10° SSE 17:59:21 62° ENE 18:02:52 10° N visible
11 Dec ? 19:30:59 10° WSW 19:32:52 14° W 19:34:44 10° WNW visible
12 Dec ? 06:47:26 10° NNE 06:50:35 29° E 06:53:43 10° SSE visible
12 Dec ? 17:27:05 10° SE 17:30:13 31° ENE 17:33:24 10° N visible
12 Dec ? 19:00:21 10° SSW 19:03:22 26° W 19:06:25 10° NW visible
13 Dec ? 06:18:57 10° NE 06:21:07 15° E 06:23:14 10° SE visible
13 Dec ? 07:51:05 10° N 07:54:34 55° WNW 07:58:00 10° SSW visible
13 Dec ? 16:58:50 10° ESE 17:01:12 17° ENE 17:03:35 10° NNE visible
13 Dec ? 18:30:31 10° S 18:33:59 54° W 18:37:28 10° NNW visible
14 Dec ? 07:21:46 10° NNE 07:25:19 70° ESE 07:28:49 10° S visible
14 Dec ? 18:01:10 10° SSE 18:04:41 71° ENE 18:08:14 10° N visible
14 Dec ? 19:36:45 10° WSW 19:38:15 12° W 19:39:45 10° WNW visible
15 Dec ? 06:52:41 10° NNE 06:55:56 33° E 06:59:08 10° SSE visible
15 Dec ? 17:32:14 10° SE 17:35:29 34° ENE 17:38:43 10° N visible
15 Dec ? 19:05:46 10° SSW 19:08:40 23° W 19:11:35 10° NW visible
16 Dec ? 06:24:01 10° NE 06:26:24 17° E 06:28:45 10° SE visible
16 Dec ? 07:56:21 10° N 07:59:46 48° WNW 08:03:10 10° SW visible
16 Dec ? 17:03:49 10° ESE 17:06:21 19° ENE 17:08:54 10° NNE visible
16 Dec ? 18:35:46 10° S 18:39:11 47° W 18:42:38 10° NNW visible
17 Dec ? 07:26:55 10° NNE 07:30:28 79° ESE 07:33:59 10° SSW visible
17 Dec ? 18:06:17 10° SSE 18:09:48 80° ENE 18:13:22 10° NNW visible
17 Dec ? 19:42:28 10° WSW 19:43:26 11° W 19:44:24 10° WNW visible
